owner,sensor,date,latitude,longitude,relative_humidity,qcFlag 
DISL,ioos:station:DISL:CATA:1,2015-03-01T00:00:00Z,30.3085,-88.1395,82.4,1111122 
DISL,ioos:station:DISL:CATA:1,2015-03-01T00:30:00Z,30.3085,-88.1395,83.3,1111122 
DISL,ioos:station:DISL:CATA:1,2015-03-01T01:00:00Z,30.3085,-88.1395,82.7,1111122 
DISL,ioos:station:DISL:CATA:1,2015-03-01T01:30:00Z,30.3085,-88.1395,85.4,1111122 
DISL,ioos:station:DISL:CATA:1,2015-03-01T02:00:00Z,30.3085,-88.1395,88.1,1111122 
DISL,ioos:station:DISL:CATA:1,2015-03-01T02:30:00Z,30.3085,-88.1395,89.7,1111122 
DISL,ioos:station:DISL:CATA:1,2015-03-01T03:00:00Z,30.3085,-88.1395,87.0,1111122 
DISL,ioos:station:DISL:CATA:1,2015-03-01T03:30:00Z,30.3085,-88.1395,88.8,1111122 
DISL,ioos:station:DISL:CATA:1,2015-03-01T04:00:00Z,30.3085,-88.1395,88.7,1111122 
DISL,ioos:station:DISL:CATA:1,2015-03-01T04:30:00Z,30.3085,-88.1395,87.6,1111122 
DISL,ioos:station:DISL:CATA:1,2015-03-01T05:00:00Z,30.3085,-88.1395,98.3,1111122 
DISL,ioos:station:DISL:CATA:1,2015-03-01T05:30:00Z,30.3085,-88.1395,98.8,1111122 
DISL,ioos:station:DISL:CATA:1,2015-03-01T06:30:00Z,30.3085,-88.1395,100.0,1111122 
DISL,ioos:station:DISL:CATA:1,2015-03-01T07:00:00Z,30.3085,-88.1395,100.0,1111122 
DISL,ioos:station:DISL:CATA:1,2015-03-01T07:30:00Z,30.3085,-88.1395,100.0,1111122 
DISL,ioos:station:DISL:CATA:1,2015-03-01T08:00:00Z,30.3085,-88.1395,100.0,1111122 
DISL,ioos:station:DISL:CATA:1,2015-03-01T08:30:00Z,30.3085,-88.1395,100.0,1111122 
DISL,ioos:station:DISL:CATA:1,2015-03-01T09:00:00Z,30.3085,-88.1395,100.0,1111122 
DISL,ioos:station:DISL:CATA:1,2015-03-01T09:30:00Z,30.3085,-88.1395,100.0,1111122 
DISL,ioos:station:DISL:CATA:1,2015-03-01T10:00:00Z,30.3085,-88.1395,100.0,1111122 
DISL,ioos:station:DISL:CATA:1,2015-03-01T10:30:00Z,30.3085,-88.1395,100.0,1111122 
DISL,ioos:station:DISL:CATA:1,2015-03-01T11:00:00Z,30.3085,-88.1395,100.0,1111122 
DISL,ioos:station:DISL:CATA:1,2015-03-01T11:30:00Z,30.3085,-88.1395,100.0,1111122 
DISL,ioos:station:DISL:CATA:1,2015-03-01T12:00:00Z,30.3085,-88.1395,100.0,1111122 
DISL,ioos:station:DISL:CATA:1,2015-03-01T12:30:00Z,30.3085,-88.1395,100.0,1111122 
DISL,ioos:station:DISL:CATA:1,2015-03-01T13:00:00Z,30.3085,-88.1395,100.0,1111122 
DISL,ioos:station:DISL:CATA:1,2015-03-01T13:30:00Z,30.3085,-88.1395,100.0,1111122 
DISL,ioos:station:DISL:CATA:1,2015-03-01T14:00:00Z,30.3085,-88.1395,100.0,1111122 
DISL,ioos:station:DISL:CATA:1,2015-03-01T14:30:00Z,30.3085,-88.1395,100.0,1111122 
DISL,ioos:station:DISL:CATA:1,2015-03-01T15:00:00Z,30.3085,-88.1395,100.0,1111122 
DISL,ioos:station:DISL:CATA:1,2015-03-01T15:30:00Z,30.3085,-88.1395,100.0,1111122 
DISL,ioos:station:DISL:CATA:1,2015-03-01T16:00:00Z,30.3085,-88.1395,100.0,1111122 
DISL,ioos:station:DISL:CATA:1,2015-03-01T16:30:00Z,30.3085,-88.1395,100.0,1111122 
DISL,ioos:station:DISL:CATA:1,2015-03-01T17:00:00Z,30.3085,-88.1395,100.0,1111122 
DISL,ioos:station:DISL:CATA:1,2015-03-01T17:30:00Z,30.3085,-88.1395,100.0,1111122 
DISL,ioos:station:DISL:CATA:1,2015-03-01T18:00:00Z,30.3085,-88.1395,100.0,1111122 
DISL,ioos:station:DISL:CATA:1,2015-03-01T18:30:00Z,30.3085,-88.1395,100.0,1111122 
DISL,ioos:station:DISL:CATA:1,2015-03-01T19:00:00Z,30.3085,-88.1395,100.0,1111122 
DISL,ioos:station:DISL:CATA:1,2015-03-01T19:30:00Z,30.3085,-88.1395,100.0,1111122 
DISL,ioos:station:DISL:CATA:1,2015-03-01T20:00:00Z,30.3085,-88.1395,100.0,1111122 
DISL,ioos:station:DISL:CATA:1,2015-03-01T20:30:00Z,30.3085,-88.1395,100.0,1111122 
DISL,ioos:station:DISL:CATA:1,2015-03-01T21:00:00Z,30.3085,-88.1395,100.0,1111122 
DISL,ioos:station:DISL:CATA:1,2015-03-01T21:30:00Z,30.3085,-88.1395,100.0,1111122 
DISL,ioos:station:DISL:CATA:1,2015-03-01T22:00:00Z,30.3085,-88.1395,100.0,1111122 
DISL,ioos:station:DISL:CATA:1,2015-03-01T22:30:00Z,30.3085,-88.1395,100.0,1111122 
DISL,ioos:station:DISL:CATA:1,2015-03-01T23:00:00Z,30.3085,-88.1395,100.0,1111122 
DISL,ioos:station:DISL:CATA:1,2015-03-01T23:30:00Z,30.3085,-88.1395,100.0,1111122 
DISL,ioos:station:DISL:CATA:1,2015-03-02T00:00:00Z,30.3085,-88.1395,100.0,1111122 
DISL,ioos:station:DISL:CATA:1,2015-03-02T00:30:00Z,30.3085,-88.1395,100.0,1111122 
DISL,ioos:station:DISL:CATA:1,2015-03-02T01:00:00Z,30.3085,-88.1395,100.0,1111122 
DISL,ioos:station:DISL:CATA:1,2015-03-02T01:30:00Z,30.3085,-88.1395,100.0,1111122 
DISL,ioos:station:DISL:CATA:1,2015-03-02T02:00:00Z,30.3085,-88.1395,100.0,1111122 
DISL,ioos:station:DISL:CATA:1,2015-03-02T02:30:00Z,30.3085,-88.1395,100.0,1111122 
DISL,ioos:station:DISL:CATA:1,2015-03-02T03:00:00Z,30.3085,-88.1395,100.0,1111122 
DISL,ioos:station:DISL:CATA:1,2015-03-02T03:30:00Z,30.3085,-88.1395,100.0,1111122 
DISL,ioos:station:DISL:CATA:1,2015-03-02T04:00:00Z,30.3085,-88.1395,100.0,1111122 
DISL,ioos:station:DISL:CATA:1,2015-03-02T04:30:00Z,30.3085,-88.1395,100.0,1111122 
DISL,ioos:station:DISL:CATA:1,2015-03-02T05:00:00Z,30.3085,-88.1395,100.0,1111122 
DISL,ioos:station:DISL:CATA:1,2015-03-02T05:30:00Z,30.3085,-88.1395,100.0,1111122 
DISL,ioos:station:DISL:CATA:1,2015-03-02T06:30:00Z,30.3085,-88.1395,100.0,1111122 
DISL,ioos:station:DISL:CATA:1,2015-03-02T07:00:00Z,30.3085,-88.1395,100.0,1111122 
DISL,ioos:station:DISL:CATA:1,2015-03-02T07:30:00Z,30.3085,-88.1395,100.0,1111122 
DISL,ioos:station:DISL:CATA:1,2015-03-02T08:00:00Z,30.3085,-88.1395,100.0,1111122 
DISL,ioos:station:DISL:CATA:1,2015-03-02T08:30:00Z,30.3085,-88.1395,100.0,1111122 
DISL,ioos:station:DISL:CATA:1,2015-03-02T09:00:00Z,30.3085,-88.1395,100.0,1111122 
DISL,ioos:station:DISL:CATA:1,2015-03-02T09:30:00Z,30.3085,-88.1395,100.0,1111122 
DISL,ioos:station:DISL:CATA:1,2015-03-02T10:00:00Z,30.3085,-88.1395,100.0,1111122 
DISL,ioos:station:DISL:CATA:1,2015-03-02T10:30:00Z,30.3085,-88.1395,100.0,1111122 
DISL,ioos:station:DISL:CATA:1,2015-03-02T11:00:00Z,30.3085,-88.1395,100.0,1111122 
DISL,ioos:station:DISL:CATA:1,2015-03-02T11:30:00Z,30.3085,-88.1395,100.0,1111122 
DISL,ioos:station:DISL:CATA:1,2015-03-02T12:00:00Z,30.3085,-88.1395,100.0,1111122 
DISL,ioos:station:DISL:CATA:1,2015-03-02T12:30:00Z,30.3085,-88.1395,100.0,1111122 
DISL,ioos:station:DISL:CATA:1,2015-03-02T13:00:00Z,30.3085,-88.1395,100.0,1111122 
DISL,ioos:station:DISL:CATA:1,2015-03-02T13:30:00Z,30.3085,-88.1395,100.0,1111122 
DISL,ioos:station:DISL:CATA:1,2015-03-02T14:00:00Z,30.3085,-88.1395,100.0,1111122 
DISL,ioos:station:DISL:CATA:1,2015-03-02T14:30:00Z,30.3085,-88.1395,100.0,1111122 
DISL,ioos:station:DISL:CATA:1,2015-03-02T15:00:00Z,30.3085,-88.1395,100.0,1111122 
DISL,ioos:station:DISL:CATA:1,2015-03-02T15:30:00Z,30.3085,-88.1395,100.0,1111122 
DISL,ioos:station:DISL:CATA:1,2015-03-02T16:00:00Z,30.3085,-88.1395,100.0,1111122 
DISL,ioos:station:DISL:CATA:1,2015-03-02T16:30:00Z,30.3085,-88.1395,100.0,1111122 
DISL,ioos:station:DISL:CATA:1,2015-03-02T17:00:00Z,30.3085,-88.1395,100.0,1111122 
DISL,ioos:station:DISL:CATA:1,2015-03-02T17:30:00Z,30.3085,-88.1395,100.0,1111122 
DISL,ioos:station:DISL:CATA:1,2015-03-02T18:00:00Z,30.3085,-88.1395,100.0,1111122 
DISL,ioos:station:DISL:CATA:1,2015-03-02T18:30:00Z,30.3085,-88.1395,100.0,1111122 
DISL,ioos:station:DISL:CATA:1,2015-03-02T19:00:00Z,30.3085,-88.1395,100.0,1111122 
DISL,ioos:station:DISL:CATA:1,2015-03-02T19:30:00Z,30.3085,-88.1395,100.0,1111122 
DISL,ioos:station:DISL:CATA:1,2015-03-02T20:00:00Z,30.3085,-88.1395,100.0,1111122 
DISL,ioos:station:DISL:CATA:1,2015-03-02T20:30:00Z,30.3085,-88.1395,100.0,1111122 
DISL,ioos:station:DISL:CATA:1,2015-03-02T21:00:00Z,30.3085,-88.1395,100.0,1111122 
DISL,ioos:station:DISL:CATA:1,2015-03-02T21:30:00Z,30.3085,-88.1395,100.0,1111122 
DISL,ioos:station:DISL:CATA:1,2015-03-02T22:00:00Z,30.3085,-88.1395,100.0,1111122 
DISL,ioos:station:DISL:CATA:1,2015-03-02T22:30:00Z,30.3085,-88.1395,100.0,1111122 
DISL,ioos:station:DISL:CATA:1,2015-03-02T23:00:00Z,30.3085,-88.1395,100.0,1111122 
DISL,ioos:station:DISL:CATA:1,2015-03-02T23:30:00Z,30.3085,-88.1395,100.0,1111122 
DISL,ioos:station:DISL:CATA:1,2015-03-03T00:00:00Z,30.3085,-88.1395,100.0,1111122 
DISL,ioos:station:DISL:CATA:1,2015-03-03T00:30:00Z,30.3085,-88.1395,100.0,1111122 
DISL,ioos:station:DISL:CATA:1,2015-03-03T01:00:00Z,30.3085,-88.1395,100.0,1111122 
DISL,ioos:station:DISL:CATA:1,2015-03-03T01:30:00Z,30.3085,-88.1395,100.0,1111122 
DISL,ioos:station:DISL:CATA:1,2015-03-03T02:00:00Z,30.3085,-88.1395,100.0,1111122 
DISL,ioos:station:DISL:CATA:1,2015-03-03T02:30:00Z,30.3085,-88.1395,100.0,1111122 
DISL,ioos:station:DISL:CATA:1,2015-03-03T03:00:00Z,30.3085,-88.1395,100.0,1111122 
DISL,ioos:station:DISL:CATA:1,2015-03-03T03:30:00Z,30.3085,-88.1395,100.0,1111122 
DISL,ioos:station:DISL:CATA:1,2015-03-03T04:00:00Z,30.3085,-88.1395,100.0,1111122 
DISL,ioos:station:DISL:CATA:1,2015-03-03T04:30:00Z,30.3085,-88.1395,100.0,1111122 
DISL,ioos:station:DISL:CATA:1,2015-03-03T05:00:00Z,30.3085,-88.1395,100.0,1111122 
DISL,ioos:station:DISL:CATA:1,2015-03-03T05:30:00Z,30.3085,-88.1395,100.0,1111122 
DISL,ioos:station:DISL:CATA:1,2015-03-03T06:30:00Z,30.3085,-88.1395,100.0,1111122 
DISL,ioos:station:DISL:CATA:1,2015-03-03T07:00:00Z,30.3085,-88.1395,100.0,1111122 
DISL,ioos:station:DISL:CATA:1,2015-03-03T07:30:00Z,30.3085,-88.1395,100.0,1111122 
DISL,ioos:station:DISL:CATA:1,2015-03-03T08:00:00Z,30.3085,-88.1395,100.0,1111122 
DISL,ioos:station:DISL:CATA:1,2015-03-03T08:30:00Z,30.3085,-88.1395,100.0,1111122 
DISL,ioos:station:DISL:CATA:1,2015-03-03T09:00:00Z,30.3085,-88.1395,100.0,1111122 
DISL,ioos:station:DISL:CATA:1,2015-03-03T09:30:00Z,30.3085,-88.1395,100.0,1111122 
DISL,ioos:station:DISL:CATA:1,2015-03-03T10:00:00Z,30.3085,-88.1395,100.0,1111122 
DISL,ioos:station:DISL:CATA:1,2015-03-03T10:30:00Z,30.3085,-88.1395,100.0,1111122 
DISL,ioos:station:DISL:CATA:1,2015-03-03T11:00:00Z,30.3085,-88.1395,100.0,1111122 
DISL,ioos:station:DISL:CATA:1,2015-03-03T11:30:00Z,30.3085,-88.1395,100.0,1111122 
DISL,ioos:station:DISL:CATA:1,2015-03-03T12:00:00Z,30.3085,-88.1395,100.0,1111122 
DISL,ioos:station:DISL:CATA:1,2015-03-03T12:30:00Z,30.3085,-88.1395,100.0,1111122 
DISL,ioos:station:DISL:CATA:1,2015-03-03T13:00:00Z,30.3085,-88.1395,100.0,1111122 
DISL,ioos:station:DISL:CATA:1,2015-03-03T13:30:00Z,30.3085,-88.1395,100.0,1111122 
DISL,ioos:station:DISL:CATA:1,2015-03-03T14:00:00Z,30.3085,-88.1395,100.0,1111122 
DISL,ioos:station:DISL:CATA:1,2015-03-03T14:30:00Z,30.3085,-88.1395,100.0,1111122 
DISL,ioos:station:DISL:CATA:1,2015-03-03T15:00:00Z,30.3085,-88.1395,100.0,1111122 
DISL,ioos:station:DISL:CATA:1,2015-03-03T15:30:00Z,30.3085,-88.1395,100.0,1111122 
DISL,ioos:station:DISL:CATA:1,2015-03-03T16:00:00Z,30.3085,-88.1395,100.0,1111122 
DISL,ioos:station:DISL:CATA:1,2015-03-03T16:30:00Z,30.3085,-88.1395,100.0,1111122 
DISL,ioos:station:DISL:CATA:1,2015-03-03T17:00:00Z,30.3085,-88.1395,100.0,1111122 
DISL,ioos:station:DISL:CATA:1,2015-03-03T17:30:00Z,30.3085,-88.1395,100.0,1111122 
DISL,ioos:station:DISL:CATA:1,2015-03-03T18:00:00Z,30.3085,-88.1395,100.0,1111122 
DISL,ioos:station:DISL:CATA:1,2015-03-03T18:30:00Z,30.3085,-88.1395,100.0,1111122 
DISL,ioos:station:DISL:CATA:1,2015-03-03T19:00:00Z,30.3085,-88.1395,100.0,1111122 
DISL,ioos:station:DISL:CATA:1,2015-03-03T19:30:00Z,30.3085,-88.1395,100.0,1111122 
DISL,ioos:station:DISL:CATA:1,2015-03-03T20:00:00Z,30.3085,-88.1395,100.0,1111122 
DISL,ioos:station:DISL:CATA:1,2015-03-03T20:30:00Z,30.3085,-88.1395,99.6,1111122 
DISL,ioos:station:DISL:CATA:1,2015-03-03T21:00:00Z,30.3085,-88.1395,100.0,1111122 
DISL,ioos:station:DISL:CATA:1,2015-03-03T21:30:00Z,30.3085,-88.1395,100.0,1111122 
DISL,ioos:station:DISL:CATA:1,2015-03-03T22:00:00Z,30.3085,-88.1395,99.7,1111122 
DISL,ioos:station:DISL:CATA:1,2015-03-03T22:30:00Z,30.3085,-88.1395,100.0,1111122 
DISL,ioos:station:DISL:CATA:1,2015-03-03T23:00:00Z,30.3085,-88.1395,100.0,1111122 
DISL,ioos:station:DISL:CATA:1,2015-03-03T23:30:00Z,30.3085,-88.1395,100.0,1111122 
DISL,ioos:station:DISL:CATA:1,2015-03-04T00:00:00Z,30.3085,-88.1395,100.0,1111122 
DISL,ioos:station:DISL:CATA:1,2015-03-04T00:30:00Z,30.3085,-88.1395,100.0,1111122 
DISL,ioos:station:DISL:CATA:1,2015-03-04T01:00:00Z,30.3085,-88.1395,100.0,1111122 
DISL,ioos:station:DISL:CATA:1,2015-03-04T01:30:00Z,30.3085,-88.1395,100.0,1111122 
DISL,ioos:station:DISL:CATA:1,2015-03-04T02:00:00Z,30.3085,-88.1395,100.0,1111122 
DISL,ioos:station:DISL:CATA:1,2015-03-04T02:30:00Z,30.3085,-88.1395,100.0,1111122 
DISL,ioos:station:DISL:CATA:1,2015-03-04T03:00:00Z,30.3085,-88.1395,100.0,1111122 
DISL,ioos:station:DISL:CATA:1,2015-03-04T03:30:00Z,30.3085,-88.1395,100.0,1111122 
DISL,ioos:station:DISL:CATA:1,2015-03-04T04:00:00Z,30.3085,-88.1395,100.0,1111122 
DISL,ioos:station:DISL:CATA:1,2015-03-04T04:30:00Z,30.3085,-88.1395,100.0,1111122 
DISL,ioos:station:DISL:CATA:1,2015-03-04T05:00:00Z,30.3085,-88.1395,100.0,1111122 
DISL,ioos:station:DISL:CATA:1,2015-03-04T05:30:00Z,30.3085,-88.1395,100.0,1111122 
DISL,ioos:station:DISL:CATA:1,2015-03-04T06:30:00Z,30.3085,-88.1395,100.0,1111122 
DISL,ioos:station:DISL:CATA:1,2015-03-04T07:00:00Z,30.3085,-88.1395,100.0,1111122 
DISL,ioos:station:DISL:CATA:1,2015-03-04T07:30:00Z,30.3085,-88.1395,100.0,1111122 
DISL,ioos:station:DISL:CATA:1,2015-03-04T08:00:00Z,30.3085,-88.1395,100.0,1111122 
DISL,ioos:station:DISL:CATA:1,2015-03-04T08:30:00Z,30.3085,-88.1395,100.0,1111122 
DISL,ioos:station:DISL:CATA:1,2015-03-04T09:00:00Z,30.3085,-88.1395,100.0,1111122 
DISL,ioos:station:DISL:CATA:1,2015-03-04T09:30:00Z,30.3085,-88.1395,100.0,1111122 
DISL,ioos:station:DISL:CATA:1,2015-03-04T10:00:00Z,30.3085,-88.1395,100.0,1111122 
DISL,ioos:station:DISL:CATA:1,2015-03-04T10:30:00Z,30.3085,-88.1395,100.0,1111122 
DISL,ioos:station:DISL:CATA:1,2015-03-04T11:00:00Z,30.3085,-88.1395,100.0,1111122 
DISL,ioos:station:DISL:CATA:1,2015-03-04T11:30:00Z,30.3085,-88.1395,100.0,1111122 
DISL,ioos:station:DISL:CATA:1,2015-03-04T12:00:00Z,30.3085,-88.1395,100.0,1111122 
DISL,ioos:station:DISL:CATA:1,2015-03-04T12:30:00Z,30.3085,-88.1395,100.0,1111122 
DISL,ioos:station:DISL:CATA:1,2015-03-04T13:00:00Z,30.3085,-88.1395,100.0,1111122 
DISL,ioos:station:DISL:CATA:1,2015-03-04T13:30:00Z,30.3085,-88.1395,100.0,1111122 
DISL,ioos:station:DISL:CATA:1,2015-03-04T14:00:00Z,30.3085,-88.1395,100.0,1111122 
DISL,ioos:station:DISL:CATA:1,2015-03-04T14:30:00Z,30.3085,-88.1395,100.0,1111122 
DISL,ioos:station:DISL:CATA:1,2015-03-04T15:00:00Z,30.3085,-88.1395,100.0,1111122 
DISL,ioos:station:DISL:CATA:1,2015-03-04T15:30:00Z,30.3085,-88.1395,100.0,1111122 
DISL,ioos:station:DISL:CATA:1,2015-03-04T16:00:00Z,30.3085,-88.1395,100.0,1111122 
DISL,ioos:station:DISL:CATA:1,2015-03-04T16:30:00Z,30.3085,-88.1395,100.0,1111122 
DISL,ioos:station:DISL:CATA:1,2015-03-04T17:00:00Z,30.3085,-88.1395,100.0,1111122 
DISL,ioos:station:DISL:CATA:1,2015-03-04T17:30:00Z,30.3085,-88.1395,100.0,1111122 
DISL,ioos:station:DISL:CATA:1,2015-03-04T18:00:00Z,30.3085,-88.1395,100.0,1111122 
DISL,ioos:station:DISL:CATA:1,2015-03-04T18:30:00Z,30.3085,-88.1395,98.8,1111122 
DISL,ioos:station:DISL:CATA:1,2015-03-04T19:00:00Z,30.3085,-88.1395,97.1,1111122 
DISL,ioos:station:DISL:CATA:1,2015-03-04T19:30:00Z,30.3085,-88.1395,97.4,1111122 
DISL,ioos:station:DISL:CATA:1,2015-03-04T20:00:00Z,30.3085,-88.1395,97.1,1111122 
DISL,ioos:station:DISL:CATA:1,2015-03-04T20:30:00Z,30.3085,-88.1395,98.4,1111122 
DISL,ioos:station:DISL:CATA:1,2015-03-04T21:00:00Z,30.3085,-88.1395,94.8,1111122 
DISL,ioos:station:DISL:CATA:1,2015-03-04T21:30:00Z,30.3085,-88.1395,97.7,1111122 
DISL,ioos:station:DISL:CATA:1,2015-03-04T22:00:00Z,30.3085,-88.1395,97.7,1111122 
DISL,ioos:station:DISL:CATA:1,2015-03-04T22:30:00Z,30.3085,-88.1395,99.0,1111122 
DISL,ioos:station:DISL:CATA:1,2015-03-04T23:00:00Z,30.3085,-88.1395,100.0,1111122 
DISL,ioos:station:DISL:CATA:1,2015-03-04T23:30:00Z,30.3085,-88.1395,100.0,1111122 
DISL,ioos:station:DISL:CATA:1,2015-03-05T00:00:00Z,30.3085,-88.1395,100.0,1111122 
DISL,ioos:station:DISL:CATA:1,2015-03-05T00:30:00Z,30.3085,-88.1395,100.0,1111122 
DISL,ioos:station:DISL:CATA:1,2015-03-05T01:00:00Z,30.3085,-88.1395,100.0,1111122 
DISL,ioos:station:DISL:CATA:1,2015-03-05T01:30:00Z,30.3085,-88.1395,100.0,1111122 
DISL,ioos:station:DISL:CATA:1,2015-03-05T02:00:00Z,30.3085,-88.1395,100.0,1111122 
DISL,ioos:station:DISL:CATA:1,2015-03-05T02:30:00Z,30.3085,-88.1395,100.0,1111122 
DISL,ioos:station:DISL:CATA:1,2015-03-05T03:00:00Z,30.3085,-88.1395,100.0,1111122 
DISL,ioos:station:DISL:CATA:1,2015-03-05T03:30:00Z,30.3085,-88.1395,100.0,1111122 
DISL,ioos:station:DISL:CATA:1,2015-03-05T04:00:00Z,30.3085,-88.1395,100.0,1111122 
DISL,ioos:station:DISL:CATA:1,2015-03-05T04:30:00Z,30.3085,-88.1395,100.0,1111122 
DISL,ioos:station:DISL:CATA:1,2015-03-05T05:00:00Z,30.3085,-88.1395,100.0,1111122 
DISL,ioos:station:DISL:CATA:1,2015-03-05T05:30:00Z,30.3085,-88.1395,100.0,1111122 
DISL,ioos:station:DISL:CATA:1,2015-03-05T06:30:00Z,30.3085,-88.1395,100.0,1111122 
DISL,ioos:station:DISL:CATA:1,2015-03-05T07:00:00Z,30.3085,-88.1395,100.0,1111122 
DISL,ioos:station:DISL:CATA:1,2015-03-05T07:30:00Z,30.3085,-88.1395,100.0,1111122 
DISL,ioos:station:DISL:CATA:1,2015-03-05T08:00:00Z,30.3085,-88.1395,100.0,1111122 
DISL,ioos:station:DISL:CATA:1,2015-03-05T08:30:00Z,30.3085,-88.1395,100.0,1111122 
DISL,ioos:station:DISL:CATA:1,2015-03-05T09:00:00Z,30.3085,-88.1395,100.0,1111122 
DISL,ioos:station:DISL:CATA:1,2015-03-05T09:30:00Z,30.3085,-88.1395,100.0,1111122 
DISL,ioos:station:DISL:CATA:1,2015-03-05T10:00:00Z,30.3085,-88.1395,100.0,1111122 
DISL,ioos:station:DISL:CATA:1,2015-03-05T10:30:00Z,30.3085,-88.1395,100.0,1111122 
DISL,ioos:station:DISL:CATA:1,2015-03-05T11:00:00Z,30.3085,-88.1395,100.0,1111122 
DISL,ioos:station:DISL:CATA:1,2015-03-05T11:30:00Z,30.3085,-88.1395,100.0,1111122 
DISL,ioos:station:DISL:CATA:1,2015-03-05T12:00:00Z,30.3085,-88.1395,100.0,1111122 
DISL,ioos:station:DISL:CATA:1,2015-03-05T12:30:00Z,30.3085,-88.1395,100.0,1111122 
DISL,ioos:station:DISL:CATA:1,2015-03-05T13:00:00Z,30.3085,-88.1395,100.0,1111122 
DISL,ioos:station:DISL:CATA:1,2015-03-05T13:30:00Z,30.3085,-88.1395,100.0,1111122 
DISL,ioos:station:DISL:CATA:1,2015-03-05T14:00:00Z,30.3085,-88.1395,100.0,1111122 
DISL,ioos:station:DISL:CATA:1,2015-03-05T14:30:00Z,30.3085,-88.1395,100.0,1111122 
DISL,ioos:station:DISL:CATA:1,2015-03-05T15:00:00Z,30.3085,-88.1395,100.0,1111122 
DISL,ioos:station:DISL:CATA:1,2015-03-05T15:30:00Z,30.3085,-88.1395,100.0,1111122 
DISL,ioos:station:DISL:CATA:1,2015-03-05T16:00:00Z,30.3085,-88.1395,98.8,1111122 
DISL,ioos:station:DISL:CATA:1,2015-03-05T16:30:00Z,30.3085,-88.1395,92.9,1111122 
DISL,ioos:station:DISL:CATA:1,2015-03-05T17:00:00Z,30.3085,-88.1395,73.49,1111122 
DISL,ioos:station:DISL:CATA:1,2015-03-05T17:30:00Z,30.3085,-88.1395,69.14,1111122 
DISL,ioos:station:DISL:CATA:1,2015-03-05T18:00:00Z,30.3085,-88.1395,66.74,1111122 
DISL,ioos:station:DISL:CATA:1,2015-03-05T18:30:00Z,30.3085,-88.1395,70.3,1111122 
DISL,ioos:station:DISL:CATA:1,2015-03-05T19:00:00Z,30.3085,-88.1395,74.62,1111122 
DISL,ioos:station:DISL:CATA:1,2015-03-05T19:30:00Z,30.3085,-88.1395,72.22,1111122 
DISL,ioos:station:DISL:CATA:1,2015-03-05T20:00:00Z,30.3085,-88.1395,70.82,1111122 
DISL,ioos:station:DISL:CATA:1,2015-03-05T20:30:00Z,30.3085,-88.1395,70.34,1111122 
DISL,ioos:station:DISL:CATA:1,2015-03-05T21:00:00Z,30.3085,-88.1395,71.16,1111122 
DISL,ioos:station:DISL:CATA:1,2015-03-05T21:30:00Z,30.3085,-88.1395,74.8,1111122 
DISL,ioos:station:DISL:CATA:1,2015-03-05T22:00:00Z,30.3085,-88.1395,76.53,1111122 
DISL,ioos:station:DISL:CATA:1,2015-03-05T22:30:00Z,30.3085,-88.1395,74.85,1111122 
DISL,ioos:station:DISL:CATA:1,2015-03-05T23:00:00Z,30.3085,-88.1395,72.56,1111122 
DISL,ioos:station:DISL:CATA:1,2015-03-05T23:30:00Z,30.3085,-88.1395,74.45,1111122 
DISL,ioos:station:DISL:CATA:1,2015-03-06T00:00:00Z,30.3085,-88.1395,74.59,1111122 
DISL,ioos:station:DISL:CATA:1,2015-03-06T00:30:00Z,30.3085,-88.1395,75.43,1111122 
DISL,ioos:station:DISL:CATA:1,2015-03-06T01:00:00Z,30.3085,-88.1395,73.23,1111122 
DISL,ioos:station:DISL:CATA:1,2015-03-06T01:30:00Z,30.3085,-88.1395,71.52,1111122 
DISL,ioos:station:DISL:CATA:1,2015-03-06T02:00:00Z,30.3085,-88.1395,72.65,1111122 
DISL,ioos:station:DISL:CATA:1,2015-03-06T02:30:00Z,30.3085,-88.1395,73.58,1111122 
DISL,ioos:station:DISL:CATA:1,2015-03-06T03:00:00Z,30.3085,-88.1395,70.56,1111122 
DISL,ioos:station:DISL:CATA:1,2015-03-06T03:30:00Z,30.3085,-88.1395,74.43,1111122 
DISL,ioos:station:DISL:CATA:1,2015-03-06T04:00:00Z,30.3085,-88.1395,70.28,1111122 
DISL,ioos:station:DISL:CATA:1,2015-03-06T04:30:00Z,30.3085,-88.1395,73.2,1111122 
DISL,ioos:station:DISL:CATA:1,2015-03-06T05:00:00Z,30.3085,-88.1395,75.36,1111122 
DISL,ioos:station:DISL:CATA:1,2015-03-06T05:30:00Z,30.3085,-88.1395,75.95,1111122 
DISL,ioos:station:DISL:CATA:1,2015-03-06T06:30:00Z,30.3085,-88.1395,75.32,1111122 
DISL,ioos:station:DISL:CATA:1,2015-03-06T07:00:00Z,30.3085,-88.1395,76.31,1111122 
DISL,ioos:station:DISL:CATA:1,2015-03-06T07:30:00Z,30.3085,-88.1395,79.95,1111122 
DISL,ioos:station:DISL:CATA:1,2015-03-06T08:00:00Z,30.3085,-88.1395,74.32,1111122 
DISL,ioos:station:DISL:CATA:1,2015-03-06T08:30:00Z,30.3085,-88.1395,75.08,1111122 
DISL,ioos:station:DISL:CATA:1,2015-03-06T09:00:00Z,30.3085,-88.1395,73.16,1111122 
DISL,ioos:station:DISL:CATA:1,2015-03-06T09:30:00Z,30.3085,-88.1395,72.57,1111122 
DISL,ioos:station:DISL:CATA:1,2015-03-06T10:00:00Z,30.3085,-88.1395,70.66,1111122 
DISL,ioos:station:DISL:CATA:1,2015-03-06T10:30:00Z,30.3085,-88.1395,71.21,1111122 
DISL,ioos:station:DISL:CATA:1,2015-03-06T11:00:00Z,30.3085,-88.1395,73.17,1111122 
DISL,ioos:station:DISL:CATA:1,2015-03-06T11:30:00Z,30.3085,-88.1395,73.32,1111122 
DISL,ioos:station:DISL:CATA:1,2015-03-06T12:00:00Z,30.3085,-88.1395,72.77,1111122 
DISL,ioos:station:DISL:CATA:1,2015-03-06T12:30:00Z,30.3085,-88.1395,73.42,1111122 
DISL,ioos:station:DISL:CATA:1,2015-03-06T13:00:00Z,30.3085,-88.1395,71.84,1111122 
DISL,ioos:station:DISL:CATA:1,2015-03-06T13:30:00Z,30.3085,-88.1395,68.03,1111122 
DISL,ioos:station:DISL:CATA:1,2015-03-06T14:00:00Z,30.3085,-88.1395,66.23,1111122 
DISL,ioos:station:DISL:CATA:1,2015-03-06T14:30:00Z,30.3085,-88.1395,62.48,1111122 
DISL,ioos:station:DISL:CATA:1,2015-03-06T15:00:00Z,30.3085,-88.1395,57.47,1111122 
DISL,ioos:station:DISL:CATA:1,2015-03-06T15:30:00Z,30.3085,-88.1395,49.66,1111122 
DISL,ioos:station:DISL:CATA:1,2015-03-06T16:00:00Z,30.3085,-88.1395,52.09,1111122 
DISL,ioos:station:DISL:CATA:1,2015-03-06T16:30:00Z,30.3085,-88.1395,44.68,1111122 
DISL,ioos:station:DISL:CATA:1,2015-03-06T17:00:00Z,30.3085,-88.1395,50.3,1111122 
DISL,ioos:station:DISL:CATA:1,2015-03-06T17:30:00Z,30.3085,-88.1395,46.21,1111122 
DISL,ioos:station:DISL:CATA:1,2015-03-06T18:00:00Z,30.3085,-88.1395,51.36,1111122 
DISL,ioos:station:DISL:CATA:1,2015-03-06T18:30:00Z,30.3085,-88.1395,47.82,1111122 
DISL,ioos:station:DISL:CATA:1,2015-03-06T19:00:00Z,30.3085,-88.1395,41.1,1111122 
DISL,ioos:station:DISL:CATA:1,2015-03-06T19:30:00Z,30.3085,-88.1395,43.26,1111122 
DISL,ioos:station:DISL:CATA:1,2015-03-06T20:00:00Z,30.3085,-88.1395,40.0,1111122 
DISL,ioos:station:DISL:CATA:1,2015-03-06T20:30:00Z,30.3085,-88.1395,38.52,1111122 
DISL,ioos:station:DISL:CATA:1,2015-03-06T21:00:00Z,30.3085,-88.1395,36.52,1111122 
DISL,ioos:station:DISL:CATA:1,2015-03-06T21:30:00Z,30.3085,-88.1395,41.36,1111122 
DISL,ioos:station:DISL:CATA:1,2015-03-06T22:00:00Z,30.3085,-88.1395,34.81,1111122 
DISL,ioos:station:DISL:CATA:1,2015-03-06T22:30:00Z,30.3085,-88.1395,25.17,1111122 
DISL,ioos:station:DISL:CATA:1,2015-03-06T23:00:00Z,30.3085,-88.1395,25.89,1111122 
DISL,ioos:station:DISL:CATA:1,2015-03-06T23:30:00Z,30.3085,-88.1395,26.47,1111122 
DISL,ioos:station:DISL:CATA:1,2015-03-07T00:00:00Z,30.3085,-88.1395,27.02,1111122 
DISL,ioos:station:DISL:CATA:1,2015-03-07T00:30:00Z,30.3085,-88.1395,31.18,1111122 
DISL,ioos:station:DISL:CATA:1,2015-03-07T01:00:00Z,30.3085,-88.1395,32.08,1111122 
DISL,ioos:station:DISL:CATA:1,2015-03-07T01:30:00Z,30.3085,-88.1395,36.19,1111122 
DISL,ioos:station:DISL:CATA:1,2015-03-07T02:00:00Z,30.3085,-88.1395,38.01,1111122 
DISL,ioos:station:DISL:CATA:1,2015-03-07T02:30:00Z,30.3085,-88.1395,38.9,1111122 